QPF
0.00 0.00 0.00 0.00 0.00 0.00 0.00 0.00 0.00 0.00 0.00 0.00 0.00 0.00 0.00 0.00 0.00 0.00 0.00 0.00 0.00 0.00 0.00 0.00 0.00 0.00 0.00 0.00 0.00 0.00 0.00 0.01 0.00 0.00 0.01 0.02 0.02 0.01 0.01 0.00 0.00 0.00 0.00 0.00
0.00 0.00 0.00 0.00 0.00 0.00 0.00 0.00 0.00 0.00 0.00 0.00 0.00 0.00 0.00 0.00 0.00 0.00 0.00 0.00 0.00 0.00 0.00 0.00 0.00 0.00 0.00 0.00 0.00 0.00 0.00 0.00 0.00 0.00 0.01 0.01 0.01 0.01 0.01 0.01 0.00 0.00 0.00 0.00
0.00 0.00 0.00 0.00 0.00 0.00 0.00 0.00 0.00 0.00 0.00 0.00 0.00 0.00 0.00 0.00 0.00 0.01 0.01 0.01 0.01 0.01 0.00 0.00 0.00 0.00 0.00 0.00 0.00 0.00 0.00 0.00 0.00 0.01 0.01 0.01 0.01 0.01 0.01 0.01 0.01 0.01 0.01 0.00
0.00 0.01 0.01 0.00 0.00 0.00 0.00 0.00 0.00 0.00 0.00 0.00 0.00 0.00 0.00 0.00 0.01 0.01 0.01 0.01 0.01 0.01 0.00 0.00 0.00 0.00 0.01 0.01 0.01 0.01 0.01 0.01 0.01 0.01 0.01 0.01 0.01 0.01 0.01 0.01 0.01 0.01 0.01 0.00
0.01 0.01 0.00 0.00 0.00 0.00 0.00 0.00 0.00 0.00 0.00 0.00 0.00 0.00 0.01 0.01 0.01 0.01 0.02 0.01 0.01 0.01 0.01 0.00 0.01 0.01 0.01 0.02 0.01 0.01 0.01 0.01 0.01 0.01 0.01 0.01 0.00 0.01 0.01 0.01 0.01 0.01 0.01 0.01
0.02 0.03 0.01 0.01 0.00 0.00 0.00 0.01 0.00 0.00 0.00 0.00 0.00 0.00 0.01 0.02 0.02 0.02 0.01 0.01 0.01 0.01 0.02 0.01 0.01 0.01 0.01 0.01 0.01 0.01 0.01 0.01 0.01 0.01 0.01 0.01 0.01 0.01 0.01 0.01 0.01 0.01 0.01 0.01
0.03 0.03 0.01 0.00 0.00 0.00 0.02 0.02 0.00 0.00 0.00 0.00 0.00 0.01 0.01 0.01 0.01 0.02 0.01 0.01 0.01 0.01 0.01 0.01 0.01 0.01 0.01 0.01 0.01 0.01 0.02 0.01 0.01 0.02 0.02 0.01 0.01 0.01 0.01 0.01 0.01 0.01 0.01 0.01
0.03 0.03 0.02 0.01 0.00 0.01 0.01 0.01 0.00 0.00 0.00 0.01 0.01 0.01 0.01 0.01 0.01 0.02 0.02 0.01 0.01 0.01 0.01 0.02 0.02 0.01 0.01 0.01 0.02 0.02 0.02 0.02 0.02 0.02 0.02 0.02 0.02 0.01 0.02 0.02 0.02 0.02 0.02 0.01
0.02 0.02 0.01 0.01 0.00 0.00 0.00 0.00 0.01 0.01 0.01 0.01 0.01 0.01 0.02 0.01 0.01 0.01 0.01 0.01 0.02 0.02 0.02 0.02 0.02 0.01 0.01 0.01 0.02 0.02 0.02 0.01 0.01 0.01 0.01 0.01 0.01 0.01 0.02 0.02 0.02 0.02 0.03 0.03
0.01 0.01 0.01 0.01 0.00 0.01 0.01 0.01 0.01 0.01 0.01 0.01 0.01 0.01 0.02 0.02 0.01 0.02 0.02 0.02 0.02 0.03 0.02 0.03 0.03 0.02 0.02 0.02 0.01 0.01 0.01 0.01 0.01 0.01 0.01 0.01 0.01 0.02 0.02 0.02 0.02 0.03 0.03 0.02
0.01 0.01 0.01 0.01 0.01 0.01 0.01 0.02 0.02 0.02 0.01 0.01 0.01 0.01 0.02 0.02 0.02 0.02 0.02 0.04 0.04 0.03 0.03 0.03 0.03 0.02 0.02 0.01 0.01 0.01 0.01 0.01 0.01 0.01 0.01 0.01 0.02 0.02 0.02 0.03 0.03 0.03 0.03 0.03
0.01 0.01 0.01 0.02 0.02 0.02 0.02 0.02 0.02 0.02 0.02 0.02 0.02 0.02 0.02 0.02 0.02 0.02 0.02 0.02 0.03 0.03 0.03 0.03 0.03 0.03 0.03 0.02 0.01 0.01 0.01 0.01 0.02 0.02 0.02 0.02 0.02 0.02 0.02 0.02 0.01 0.01 0.01 0.01
0.01 0.01 0.02 0.02 0.03 0.05 0.05 0.04 0.04 0.03 0.03 0.02 0.02 0.02 0.02 0.01 0.02 0.02 0.02 0.01 0.01 0.02 0.03 0.02 0.03 0.04 0.05 0.05 0.04 0.04 0.03 0.03 0.02 0.02 0.02 0.01 0.02 0.02 0.02 0.02 0.01 0.01 0.01 0.00
0.02 0.02 0.03 0.04 0.05 0.06 0.06 0.05 0.05 0.04 0.03 0.03 0.03 0.03 0.02 0.01 0.01 0.01 0.01 0.01 0.01 0.01 0.01 0.01 0.01 0.01 0.02 0.03 0.03 0.03 0.03 0.03 0.02 0.02 0.01 0.01 0.01 0.01 0.01 0.01 0.01 0.01 0.01 0.01
0.03 0.03 0.04 0.05 0.07 0.06 0.05 0.05 0.04 0.03 0.03 0.03 0.03 0.02 0.01 0.00 0.00 0.00 0.01 0.01 0.00 0.00 0.00 0.00 0.00 0.00 0.01 0.00 0.00 0.01 0.01 0.02 0.02 0.02 0.02 0.02 0.02 0.01 0.01 0.01 0.01 0.01 0.01 0.01
0.03 0.06 0.07 0.08 0.07 0.06 0.06 0.05 0.03 0.03 0.02 0.02 0.01 0.01 0.00 0.00 0.00 0.00 0.00 0.00 0.00 0.00 0.00 0.00 0.00 0.00 0.00 0.00 0.01 0.01 0.02 0.02 0.02 0.02 0.01 0.01 0.01 0.01 0.01 0.01 0.01 0.01 0.01 0.01
0.06 0.07 0.08 0.07 0.06 0.05 0.04 0.03 0.04 0.04 0.04 0.03 0.02 0.01 0.01 0.00 0.00 0.00 0.00 0.00 0.00 0.00 0.00 0.00 0.00 0.00 0.01 0.01 0.02 0.02 0.02 0.02 0.01 0.00 0.00 0.00 0.00 0.00 0.00 0.00 0.01 0.00 0.00 0.00
0.04 0.04 0.04 0.03 0.03 0.03 0.04 0.03 0.03 0.03 0.03 0.03 0.02 0.01 0.01 0.01 0.00 0.00 0.00 0.00 0.00 0.00 0.00 0.00 0.00 0.01 0.01 0.01 0.01 0.01 0.01 0.00 0.00 0.00 0.00 0.00 0.00 0.00 0.00 0.00 0.00 0.00 0.01 0.01
0.02 0.01 0.01 0.01 0.01 0.03 0.04 0.04 0.03 0.03 0.02 0.02 0.01 0.01 0.01 0.01 0.00 0.00 0.00 0.00 0.00 0.00 0.00 0.00 0.00 0.00 0.00 0.00 0.00 0.00 0.00 0.00 0.00 0.00 0.00 0.00 0.00 0.00 0.00 0.00 0.00 0.01 0.01 0.01
0.01 0.00 0.00 0.00 0.01 0.01 0.02 0.01 0.01 0.01 0.01 0.01 0.01 0.00 0.00 0.00 0.00 0.00 0.00 0.00 0.00 0.00 0.00 0.00 0.00 0.00 0.00 0.00 0.00 0.00 0.00 0.00 0.00 0.00 0.00 0.00 0.00 0.00 0.00 0.00 0.00 0.01 0.01 0.01
0.00 0.00 0.01 0.01 0.01 0.00 0.00 0.00 0.00 0.00 0.00 0.00 0.00 0.00 0.00 0.00 0.00 0.00 0.00 0.00 0.00 0.00 0.00 0.00 0.00 0.00 0.00 0.00 0.00 0.00 0.00 0.00 0.00 0.00 0.00 0.00 0.00 0.00 0.00 0.00 0.00 0.00 0.00 0.01
0.00 0.00 0.01 0.01 0.01 0.00 0.00 0.00 0.00 0.00 0.00 0.00 0.00 0.00 0.00 0.00 0.00 0.00 0.00 0.00 0.00 0.00 0.00 0.00 0.00 0.00 0.00 0.00 0.00 0.00 0.00 0.00 0.00 0.00 0.00 0.00 0.00 0.00 0.00 0.01 0.01 0.01 0.01 0.02
0.01 0.00 0.00 0.00 0.00 0.00 0.00 0.00 0.00 0.00 0.00 0.00 0.00 0.00 0.00 0.00 0.00 0.00 0.00 0.00 0.00 0.00 0.00 0.00 0.00 0.00 0.00 0.00 0.00 0.00 0.00 0.00 0.00 0.00 0.00 0.00 0.00 0.01 0.01 0.01 0.01 0.01 0.02 0.02
0.01 0.00 0.00 0.00 0.00 0.00 0.00 0.00 0.00 0.00 0.00 0.00 0.00 0.00 0.00 0.00 0.00 0.00 0.00 0.00 0.00 0.00 0.00 0.00 0.00 0.00 0.00 0.00 0.00 0.00 0.00 0.00 0.00 0.01 0.01 0.01 0.01 0.02 0.01 0.02 0.02 0.02 0.02 0.02
0.00 0.00 0.00 0.00 0.00 0.00 0.00 0.00 0.00 0.00 0.00 0.00 0.00 0.00 0.00 0.00 0.00 0.00 0.00 0.00 0.00 0.00 0.00 0.00 0.00 0.00 0.00 0.00 0.00 0.00 0.01 0.01 0.01 0.01 0.01 0.01 0.02 0.02 0.01 0.02 0.02 0.02 0.02 0.01
0.00 0.00 0.00 0.00 0.00 0.00 0.00 0.00 0.00 0.00 0.00 0.00 0.00 0.00 0.00 0.00 0.00 0.00 0.00 0.00 0.00 0.00 0.00 0.00 0.01 0.01 0.01 0.01 0.01 0.01 0.01 0.01 0.01 0.01 0.01 0.02 0.02 0.01 0.01 0.02 0.01 0.02 0.02 0.02
0.00 0.00 0.00 0.00 0.00 0.00 0.00 0.00 0.01 0.00 0.00 0.00 0.00 0.00 0.00 0.00 0.01 0.00 0.01 0.01 0.01 0.01 0.01 0.01 0.02 0.01 0.01 0.01 0.01 0.01 0.01 0.01 0.01 0.02 0.02 0.02 0.02 0.02 0.02 0.02 0.02 0.03 0.04 0.05
MSLP
1008.68 1008.75 1008.77 1008.75 1008.72 1008.69 1008.66 1008.62 1008.56 1008.49 1008.38 1008.25 1008.09 1007.94 1007.80 1007.71 1007.67 1007.71 1007.83 1008.04 1008.31 1008.66 1009.04 1009.47 1009.92 1010.38 1010.85 1011.34 1011.84 1012.35 1012.88 1013.41 1013.94 1014.48 1015.00 1015.50 1015.98 1016.43 1016.84 1017.20 1017.52 1017.80 1018.02 1018.20
1008.61 1008.61 1008.54 1008.42 1008.29 1008.16 1008.06 1007.99 1007.95 1007.92 1007.90 1007.88 1007.83 1007.77 1007.71 1007.64 1007.60 1007.59 1007.63 1007.74 1007.92 1008.16 1008.48 1008.85 1009.26 1009.72 1010.20 1010.70 1011.21 1011.74 1012.27 1012.81 1013.34 1013.88 1014.40 1014.91 1015.40 1015.86 1016.29 1016.67 1017.00 1017.29 1017.52 1017.70
1008.56 1008.50 1008.35 1008.15 1007.93 1007.74 1007.59 1007.51 1007.49 1007.53 1007.60 1007.67 1007.73 1007.76 1007.76 1007.72 1007.66 1007.60 1007.56 1007.57 1007.64 1007.78 1008.00 1008.30 1008.67 1009.09 1009.56 1010.06 1010.58 1011.11 1011.64 1012.18 1012.71 1013.23 1013.74 1014.25 1014.73 1015.20 1015.62 1016.02 1016.36 1016.65 1016.89 1017.08
1008.52 1008.39 1008.17 1007.90 1007.63 1007.40 1007.24 1007.17 1007.20 1007.30 1007.45 1007.63 1007.78 1007.90 1007.95 1007.94 1007.87 1007.77 1007.66 1007.57 1007.54 1007.58 1007.71 1007.92 1008.23 1008.60 1009.04 1009.52 1010.03 1010.55 1011.07 1011.58 1012.09 1012.59 1013.09 1013.57 1014.04 1014.48 1014.91 1015.29 1015.64 1015.94 1016.19 1016.39
1008.42 1008.21 1007.93 1007.62 1007.32 1007.08 1006.94 1006.91 1007.00 1007.18 1007.42 1007.69 1007.94 1008.13 1008.24 1008.27 1008.20 1008.08 1007.92 1007.76 1007.65 1007.60 1007.64 1007.77 1008.01 1008.33 1008.72 1009.16 1009.64 1010.13 1010.62 1011.10 1011.58 1012.04 1012.50 1012.95 1013.38 1013.81 1014.21 1014.59 1014.93 1015.24 1015.50 1015.71
1008.20 1007.92 1007.59 1007.26 1006.96 1006.74 1006.64 1006.68 1006.84 1007.10 1007.44 1007.80 1008.14 1008.41 1008.59 1008.65 1008.61 1008.49 1008.31 1008.12 1007.95 1007.84 1007.81 1007.88 1008.05 1008.31 1008.65 1009.04 1009.47 1009.91 1010.35 1010.79 1011.22 1011.64 1012.04 1012.45 1012.84 1013.23 1013.61 1013.97 1014.31 1014.61 1014.87 1015.09
1007.81 1007.47 1007.12 1006.78 1006.52 1006.36 1006.33 1006.44 1006.69 1007.04 1007.47 1007.92 1008.34 1008.68 1008.92 1009.04 1009.05 1008.95 1008.79 1008.59 1008.41 1008.27 1008.21 1008.23 1008.35 1008.55 1008.83 1009.16 1009.53 1009.91 1010.30 1010.68 1011.05 1011.41 1011.76 1012.11 1012.47 1012.82 1013.16 1013.50 1013.82 1014.11 1014.37 1014.59
1007.28 1006.90 1006.54 1006.24 1006.03 1005.95 1006.01 1006.21 1006.55 1006.99 1007.50 1008.02 1008.50 1008.92 1009.22 1009.40 1009.46 1009.42 1009.29 1009.13 1008.97 1008.83 1008.76 1008.76 1008.85 1009.01 1009.23 1009.51 1009.81 1010.13 1010.45 1010.76 1011.07 1011.37 1011.66 1011.96 1012.26 1012.57 1012.88 1013.18 1013.48 1013.75 1014.00 1014.19
1006.66 1006.27 1005.94 1005.70 1005.58 1005.59 1005.75 1006.05 1006.47 1006.99 1007.56 1008.13 1008.66 1009.12 1009.47 1009.71 1009.83 1009.84 1009.78 1009.68 1009.56 1009.46 1009.41 1009.41 1009.48 1009.60 1009.78 1010.00 1010.24 1010.50 1010.75 1010.99 1011.23 1011.47 1011.71 1011.95 1012.20 1012.46 1012.73 1013.00 1013.26 1013.50 1013.71 1013.88
1006.06 1005.71 1005.45 1005.30 1005.28 1005.40 1005.67 1006.06 1006.55 1007.11 1007.71 1008.31 1008.85 1009.33 1009.71 1009.98 1010.14 1010.22 1010.23 1010.18 1010.13 1010.08 1010.06 1010.08 1010.15 1010.26 1010.41 1010.58 1010.76 1010.95 1011.14 1011.32 1011.50 1011.68 1011.86 1012.04 1012.24 1012.45 1012.67 1012.90 1013.11 1013.31 1013.47 1013.59
1005.64 1005.36 1005.19 1005.15 1005.25 1005.49 1005.85 1006.31 1006.85 1007.44 1008.03 1008.61 1009.14 1009.60 1009.97 1010.25 1010.44 1010.56 1010.62 1010.64 1010.65 1010.66 1010.68 1010.73 1010.81 1010.91 1011.02 1011.16 1011.29 1011.42 1011.55 1011.67 1011.79 1011.91 1012.04 1012.17 1012.32 1012.48 1012.64 1012.81 1012.96 1013.10 1013.20 1013.26
1005.51 1005.33 1005.28 1005.37 1005.59 1005.93 1006.37 1006.88 1007.44 1008.01 1008.57 1009.10 1009.57 1009.97 1010.30 1010.55 1010.74 1010.88 1010.97 1011.04 1011.10 1011.16 1011.22 1011.30 1011.39 1011.48 1011.58 1011.68 1011.77 1011.85 1011.93 1012.00 1012.07 1012.13 1012.20 1012.28 1012.37 1012.47 1012.58 1012.68 1012.77 1012.85 1012.88 1012.87
1005.72 1005.67 1005.74 1005.95 1006.28 1006.71 1007.20 1007.74 1008.29 1008.82 1009.32 1009.77 1010.15 1010.46 1010.72 1010.92 1011.08 1011.20 1011.31 1011.40 1011.49 1011.58 1011.68 1011.78 1011.87 1011.96 1012.04 1012.11 1012.16 1012.20 1012.23 1012.25 1012.27 1012.29 1012.31 1012.34 1012.37 1012.41 1012.46 1012.49 1012.52 1012.52 1012.48 1012.40
1006.27 1006.34 1006.53 1006.85 1007.26 1007.75 1008.28 1008.82 1009.34 1009.81 1010.22 1010.56 1010.84 1011.05 1011.21 1011.34 1011.44 1011.53 1011.62 1011.72 1011.82 1011.93 1012.04 1012.15 1012.24 1012.32 1012.38 1012.42 1012.44 1012.44 1012.43 1012.41 1012.38 1012.35 1012.33 1012.30 1012.29 1012.27 1012.26 1012.23 1012.19 1012.13 1012.03 1011.89
1007.08 1007.25 1007.54 1007.93 1008.41 1008.93 1009.47 1009.99 1010.45 1010.85 1011.17 1011.41 1011.57 1011.67 1011.74 1011.78 1011.81 1011.85 1011.91 1011.99 1012.09 1012.20 1012.31 1012.41 1012.50 1012.56 1012.60 1012.61 1012.60 1012.56 1012.51 1012.45 1012.38 1012.31 1012.24 1012.17 1012.11 1012.04 1011.97 1011.90 1011.81 1011.69 1011.55 1011.36
1008.03 1008.27 1008.62 1009.06 1009.56 1010.09 1010.62 1011.09 1011.51 1011.83 1012.05 1012.19 1012.25 1012.26 1012.22 1012.18 1012.15 1012.13 1012.15 1012.20 1012.27 1012.36 1012.46 1012.55 1012.62 1012.66 1012.67 1012.66 1012.61 1012.54 1012.45 1012.35 1012.24 1012.13 1012.02 1011.92 1011.81 1011.71 1011.61 1011.49 1011.37 1011.22 1011.05 1010.84
1009.00 1009.27 1009.64 1010.08 1010.58 1011.10 1011.59 1012.02 1012.37 1012.63 1012.78 1012.83 1012.81 1012.72 1012.61 1012.50 1012.40 1012.33 1012.30 1012.31 1012.35 1012.41 1012.48 1012.54 1012.59 1012.61 1012.59 1012.54 1012.46 1012.35 1012.23 1012.09 1011.94 1011.80 1011.65 1011.52 1011.39 1011.26 1011.13 1011.01 1010.87 1010.72 1010.54 1010.33
1009.90 1010.16 1010.50 1010.92 1011.39 1011.86 1012.31 1012.69 1012.99 1013.18 1013.27 1013.27 1013.17 1013.03 1012.85 1012.68 1012.52 1012.40 1012.32 1012.29 1012.29 1012.32 1012.36 1012.39 1012.40 1012.39 1012.34 1012.25 1012.14 1011.99 1011.83 1011.65 1011.47 1011.29 1011.12 1010.96 1010.81 1010.68 1010.55 1010.43 1010.30 1010.17 1010.02 1009.84
1010.69 1010.89 1011.18 1011.54 1011.95 1012.36 1012.76 1013.09 1013.34 1013.48 1013.53 1013.47 1013.34 1013.14 1012.92 1012.70 1012.50 1012.33 1012.21 1012.13 1012.10 1012.09 1012.09 1012.08 1012.06 1012.01 1011.92 1011.80 1011.64 1011.46 1011.25 1011.03 1010.82 1010.61 1010.41 1010.24 1010.08 1009.95 1009.84 1009.74 1009.65 1009.56 1009.45 1009.32
1011.35 1011.48 1011.68 1011.97 1012.30 1012.65 1012.98 1013.26 1013.47 1013.57 1013.58 1013.49 1013.32 1013.09 1012.83 1012.57 1012.33 1012.13 1011.97 1011.85 1011.77 1011.72 1011.69 1011.64 1011.59 1011.50 1011.37 1011.21 1011.01 1010.78 1010.54 1010.28 1010.03 1009.79 1009.57 1009.39 1009.23 1009.11 1009.03 1008.97 1008.92 1008.89 1008.84 1008.78
1011.92 1011.95 1012.07 1012.27 1012.52 1012.80 1013.07 1013.29 1013.44 1013.51 1013.48 1013.36 1013.16 1012.91 1012.63 1012.34 1012.06 1011.82 1011.62 1011.47 1011.36 1011.27 1011.20 1011.13 1011.04 1010.92 1010.76 1010.56 1010.32 1010.05 1009.76 1009.46 1009.18 1008.91 1008.67 1008.48 1008.33 1008.23 1008.17 1008.15 1008.16 1008.19 1008.21 1008.21
1012.43 1012.37 1012.40 1012.51 1012.68 1012.88 1013.08 1013.24 1013.34 1013.37 1013.30 1013.15 1012.93 1012.65 1012.34 1012.02 1011.72 1011.45 1011.23 1011.05 1010.91 1010.80 1010.70 1010.60 1010.48 1010.33 1010.15 1009.91 1009.64 1009.34 1009.01 1008.68 1008.36 1008.07 1007.81 1007.61 1007.47 1007.38 1007.36 1007.38 1007.44 1007.51 1007.59 1007.65
1012.88 1012.74 1012.69 1012.73 1012.82 1012.94 1013.07 1013.16 1013.21 1013.18 1013.08 1012.89 1012.64 1012.34 1012.01 1011.68 1011.36 1011.08 1010.83 1010.64 1010.48 1010.36 1010.24 1010.13 1010.00 1009.83 1009.63 1009.37 1009.08 1008.74 1008.39 1008.03 1007.68 1007.37 1007.10 1006.89 1006.75 1006.68 1006.68 1006.74 1006.83 1006.95 1007.07 1007.17
1013.27 1013.08 1012.97 1012.93 1012.95 1013.00 1013.05 1013.08 1013.07 1012.99 1012.84 1012.62 1012.34 1012.02 1011.68 1011.34 1011.02 1010.73 1010.49 1010.29 1010.14 1010.01 1009.90 1009.78 1009.65 1009.48 1009.27 1009.01 1008.70 1008.35 1007.97 1007.60 1007.23 1006.90 1006.62 1006.41 1006.27 1006.22 1006.23 1006.30 1006.42 1006.57 1006.71 1006.83
1013.60 1013.37 1013.22 1013.12 1013.07 1013.05 1013.03 1012.99 1012.92 1012.79 1012.60 1012.35 1012.05 1011.73 1011.38 1011.05 1010.74 1010.46 1010.24 1010.06 1009.92 1009.81 1009.71 1009.61 1009.48 1009.32 1009.11 1008.85 1008.54 1008.18 1007.81 1007.42 1007.05 1006.71 1006.43 1006.22 1006.08 1006.03 1006.05 1006.13 1006.25 1006.40 1006.54 1006.66
1013.85 1013.61 1013.42 1013.27 1013.17 1013.08 1013.00 1012.90 1012.76 1012.59 1012.37 1012.10 1011.80 1011.48 1011.16 1010.84 1010.56 1010.32 1010.12 1009.98 1009.87 1009.78 1009.70 1009.62 1009.51 1009.36 1009.17 1008.91 1008.61 1008.26 1007.88 1007.50 1007.13 1006.79 1006.51 1006.30 1006.17 1006.11 1006.13 1006.20 1006.32 1006.45 1006.58 1006.67
1014.03 1013.78 1013.57 1013.39 1013.23 1013.09 1012.96 1012.80 1012.63 1012.42 1012.18 1011.92 1011.63 1011.33 1011.05 1010.78 1010.54 1010.34 1010.19 1010.08 1010.00 1009.94 1009.89 1009.82 1009.73 1009.59 1009.40 1009.15 1008.86 1008.52 1008.15 1007.77 1007.41 1007.08 1006.81 1006.60 1006.47 1006.40 1006.41 1006.47 1006.56 1006.67 1006.76 1006.82
Thickness
5767 5771 5771 5769 5767 5765 5760 5763 5759 5764 5768 5775 5778 5777 5776 5777 5777 5776 5774 5772 5770 5768 5767 5764 5761 5758 5755 5753 5750 5747 5741 5736 5732 5728 5725 5721 5717 5713 5709 5706 5703 5699 5695 5692
5753 5763 5763 5760 5765 5765 5762 5764 5764 5765 5767 5778 5779 5778 5773 5773 5772 5771 5771 5771 5770 5768 5766 5762 5760 5757 5754 5751 5748 5744 5738 5734 5732 5727 5723 5718 5714 5711 5707 5703 5699 5696 5692 5689
5743 5755 5752 5747 5763 5764 5763 5767 5764 5759 5767 5772 5769 5767 5766 5766 5767 5768 5769 5770 5769 5768 5765 5763 5761 5757 5753 5750 5746 5740 5735 5732 5729 5724 5719 5716 5713 5708 5704 5700 5696 5691 5688 5686
5741 5737 5722 5757 5774 5771 5764 5765 5767 5766 5767 5766 5764 5764 5765 5765 5763 5763 5765 5765 5766 5766 5764 5763 5760 5755 5751 5749 5743 5737 5733 5729 5725 5720 5716 5712 5708 5704 5701 5697 5693 5689 5685 5683
5732 5729 5737 5753 5761 5761 5754 5754 5763 5761 5760 5761 5762 5760 5757 5759 5760 5759 5761 5761 5762 5763 5763 5759 5756 5752 5746 5742 5738 5733 5729 5724 5721 5717 5713 5708 5703 5699 5696 5692 5688 5685 5682 5679
5725 5718 5719 5742 5755 5759 5752 5741 5754 5755 5752 5753 5754 5749 5747 5751 5752 5753 5754 5755 5755 5756 5754 5750 5748 5745 5739 5734 5730 5726 5723 5719 5716 5712 5707 5702 5698 5694 5691 5686 5683 5680 5678 5675
5719 5716 5730 5743 5750 5749 5729 5731 5744 5747 5746 5746 5743 5741 5740 5744 5743 5743 5743 5744 5745 5743 5741 5738 5737 5734 5728 5724 5720 5718 5716 5712 5708 5704 5699 5695 5691 5687 5683 5679 5676 5672 5670 5668
5715 5710 5716 5736 5739 5733 5729 5736 5738 5738 5738 5736 5734 5734 5733 5732 5731 5732 5731 5732 5732 5729 5725 5724 5722 5719 5715 5712 5711 5709 5706 5702 5697 5694 5692 5688 5682 5678 5674 5670 5666 5663 5661 5660
5717 5716 5722 5731 5729 5730 5733 5730 5730 5730 5730 5729 5725 5723 5722 5720 5719 5718 5718 5718 5718 5715 5711 5709 5707 5705 5701 5699 5699 5696 5692 5689 5686 5684 5681 5678 5674 5670 5666 5662 5660 5658 5656 5654
5711 5715 5717 5720 5722 5723 5725 5724 5723 5723 5721 5719 5715 5713 5710 5708 5706 5705 5705 5705 5704 5701 5698 5695 5694 5692 5690 5687 5684 5682 5679 5676 5674 5671 5670 5666 5663 5662 5658 5656 5652 5649 5646 5644
5702 5706 5709 5709 5711 5713 5714 5714 5712 5711 5710 5707 5704 5700 5697 5694 5692 5692 5691 5691 5690 5687 5684 5681 5679 5677 5677 5674 5672 5670 5667 5665 5662 5661 5659 5654 5652 5648 5646 5643 5639 5634 5633 5631
5693 5696 5699 5696 5701 5704 5702 5700 5698 5696 5694 5694 5691 5686 5684 5682 5680 5679 5678 5677 5675 5674 5672 5669 5667 5664 5662 5660 5660 5658 5655 5654 5653 5651 5647 5645 5641 5638 5632 5629 5624 5619 5615 5612
5686 5690 5691 5690 5692 5693 5691 5688 5686 5683 5680 5678 5677 5675 5672 5669 5668 5666 5665 5664 5662 5660 5658 5656 5654 5651 5649 5649 5648 5645 5643 5641 5641 5639 5636 5633 5629 5626 5623 5619 5613 5609 5605 5600
5679 5680 5677 5678 5678 5678 5678 5676 5673 5669 5667 5665 5663 5661 5659 5657 5655 5654 5652 5652 5650 5649 5647 5645 5643 5641 5640 5639 5637 5635 5633 5629 5627 5626 5623 5621 5618 5615 5612 5609 5606 5604 5598 5591
5668 5670 5668 5666 5666 5664 5663 5661 5658 5654 5652 5650 5649 5646 5644 5642 5641 5640 5640 5640 5639 5638 5636 5635 5632 5630 5630 5628 5625 5623 5622 5620 5615 5613 5611 5609 5605 5602 5600 5596 5592 5590 5588 5584
5656 5657 5655 5653 5650 5649 5648 5645 5642 5638 5637 5636 5634 5633 5632 5631 5630 5629 5628 5628 5626 5625 5624 5622 5621 5620 5619 5616 5613 5611 5609 5602 5599 5599 5598 5596 5593 5589 5586 5581 5578 5575 5572 5570
5643 5641 5640 5638 5636 5634 5633 5631 5629 5627 5625 5623 5622 5621 5620 5619 5617 5616 5616 5615 5613 5612 5612 5610 5609 5609 5607 5604 5602 5602 5599 5595 5587 5587 5587 5583 5579 5575 5571 5567 5564 5562 5558 5555
5636 5633 5632 5629 5625 5622 5620 5619 5618 5616 5615 5613 5611 5609 5607 5606 5604 5603 5603 5603 5602 5601 5601 5600 5598 5596 5594 5591 5589 5588 5586 5584 5581 5577 5574 5569 5564 5560 5557 5554 5551 5548 5545 5541
5623 5621 5619 5617 5615 5614 5611 5610 5608 5606 5605 5603 5602 5600 5598 5597 5595 5594 5593 5592 5591 5590 5590 5588 5581 5581 5581 5579 5573 5572 5572 5570 5567 5563 5558 5552 5549 5547 5543 5539 5536 5532 5529 5526
5611 5609 5608 5606 5605 5603 5601 5600 5599 5597 5595 5594 5592 5591 5589 5588 5587 5585 5584 5582 5583 5581 5578 5574 5572 5571 5568 5566 5558 5560 5559 5556 5552 5548 5544 5541 5537 5533 5529 5525 5522 5518 5515 5513
5600 5599 5597 5595 5593 5592 5591 5590 5588 5587 5586 5585 5583 5581 5580 5579 5577 5576 5574 5574 5572 5568 5564 5560 5559 5558 5556 5550 5544 5547 5546 5542 5538 5534 5531 5527 5524 5520 5516 5513 5509 5506 5503 5501
5588 5588 5586 5586 5584 5582 5581 5580 5578 5577 5575 5573 5572 5571 5569 5567 5567 5565 5563 5560 5558 5551 5550 5552 5549 5541 5537 5531 5535 5535 5532 5529 5525 5521 5518 5514 5511 5507 5504 5501 5498 5495 5493 5491
5576 5576 5575 5574 5573 5571 5570 5570 5568 5566 5564 5562 5560 5558 5557 5554 5554 5553 5551 5549 5545 5537 5535 5536 5528 5522 5516 5520 5523 5522 5519 5516 5512 5509 5505 5502 5499 5496 5493 5491 5488 5485 5484 5482
5564 5563 5563 5562 5562 5560 5558 5558 5556 5554 5552 5550 5549 5546 5543 5543 5543 5542 5538 5531 5526 5521 5523 5518 5512 5508 5504 5510 5511 5510 5507 5503 5500 5497 5494 5492 5489 5486 5484 5481 5478 5477 5476 5474
5552 5551 5551 5549 5549 5550 5547 5546 5544 5543 5541 5541 5538 5535 5533 5530 5527 5525 5521 5518 5513 5509 5511 5508 5502 5498 5499 5502 5501 5498 5495 5491 5487 5484 5481 5479 5477 5476 5474 5472 5470 5469 5468 5468
5541 5541 5540 5537 5536 5535 5536 5534 5533 5531 5529 5527 5525 5522 5519 5517 5514 5511 5509 5506 5503 5498 5498 5498 5496 5492 5493 5492 5489 5486 5482 5479 5476 5473 5471 5469 5468 5466 5465 5464 5463 5462 5462 5463
5531 5531 5529 5528 5528 5525 5523 5521 5519 5517 5514 5512 5509 5507 5504 5503 5501 5498 5496 5494 5491 5490 5488 5486 5485 5483 5481 5479 5476 5473 5470 5467 5465 5463 5461 5460 5459 5458 5457 5457 5457 5456 5457 5459